Weather History for Madison, SD

Change the Weather History Date:

Monday, November 28, 2011

  Actual Average Record
Temperature  
Mean Temperature 34 °F -  
Max Temperature 50 °F 31 °F 50 °F (2011)
Min Temperature 19 °F 12 °F 10 °F (2013)
Degree Days  
Heating Degree Days 30    
Moisture  
Dew Point 20 °F    
Average Humidity 62    
Maximum Humidity 93    
Minimum Humidity 32    
Precipitation  
Precipitation 0.00 in - - ()
Sea Level Pressure  
Sea Level Pressure 30.06 in    
Wind  
Wind Speed 11 mph (SW)    
Max Wind Speed 23 mph    
Max Gust Speed 31 mph    
Visibility 10 miles    
Events      
Averages and records for this station are not official NWS values.
T = Trace of Precipitation, MM = Missing Value Source: NWS Daily Summary

Daily Weather History Graph

Daily Weather History Graph

Search for Another Location

Airport:

Trip Planner

Search our weather history database for the weather conditions in past years. The results will help you decide how hot, cold, wet, or windy it might be!

Date:

Astronomy

Nov. 28, 2011 Rise Set
Actual Time 7:39 AM CST 4:52 PM CST
Civil Twilight 7:07 AM CST 5:25 PM CST
Nautical Twilight 6:31 AM CST 6:00 PM CST
Astronomical Twilight 5:56 AM CST 6:35 PM CST
Moon 10:48 AM CST (11/28) 8:42 PM CST (11/28)
Length of Visible Light 10h 17m
Length of Day
9h 13m
Waxing Crescent, 16% of the Moon is Illuminated
Nov 28
Waxing Crescent
Dec 2
First Quarter
Dec 10
Full
Dec 17
Last Quarter
Dec 24
New

Hourly Weather History & Observations

Time (CST) Temp. Windchill Dew Point Humidity Pressure Visibility Wind Dir Wind Speed Gust Speed Precip Events Conditions
12:10 AM 19.4 °F 8.6 °F 14.0 °F 80% 30.08 in 10.0 mi South 9.2 mph - N/A   Clear
12:30 AM 23.0 °F 13.9 °F 15.8 °F 74% 30.07 in 10.0 mi South 8.1 mph - N/A   Clear
12:50 AM 19.4 °F 8.6 °F 15.8 °F 86% 30.07 in 10.0 mi South 9.2 mph - N/A   Clear
1:10 AM 21.2 °F 10.1 °F 15.8 °F 80% 30.06 in 10.0 mi South 10.4 mph - N/A   Clear
1:30 AM 23.0 °F 12.4 °F 15.8 °F 74% 30.05 in 10.0 mi South 10.4 mph - N/A   Clear
1:50 AM 19.4 °F 11.5 °F 15.8 °F 86% 30.06 in 10.0 mi South 5.8 mph - N/A   Clear
2:10 AM 21.2 °F 10.1 °F 15.8 °F 80% 30.05 in 10.0 mi South 10.4 mph - N/A   Clear
2:30 AM 23.0 °F 12.4 °F 15.8 °F 74% 30.04 in 10.0 mi South 10.4 mph - N/A   Clear
2:50 AM 23.0 °F 13.1 °F 15.8 °F 74% 30.04 in 10.0 mi South 9.2 mph - N/A   Clear
3:10 AM 23.0 °F 13.1 °F 15.8 °F 74% 30.04 in 10.0 mi South 9.2 mph - N/A   Clear
3:30 AM 23.0 °F 11.7 °F 15.8 °F 74% 30.02 in 10.0 mi South 11.5 mph - N/A   Clear
3:50 AM 23.0 °F 12.4 °F 15.8 °F 74% 30.02 in 10.0 mi South 10.4 mph - N/A   Clear
4:10 AM 21.2 °F 8.9 °F 15.8 °F 80% 30.01 in 10.0 mi South 12.7 mph - N/A   Clear
4:30 AM 23.0 °F 11.1 °F 14.0 °F 68% 30.01 in 10.0 mi SSE 12.7 mph - N/A   Clear
4:50 AM 23.0 °F 11.1 °F 14.0 °F 68% 30.00 in 10.0 mi South 12.7 mph - N/A   Clear
5:10 AM 23.0 °F 11.1 °F 14.0 °F 68% 30.00 in 10.0 mi South 12.7 mph - N/A   Clear
5:30 AM 23.0 °F 10.6 °F 14.0 °F 68% 29.99 in 10.0 mi South 13.8 mph - N/A   Clear
5:50 AM 23.0 °F 10.6 °F 14.0 °F 68% 29.98 in 10.0 mi South 13.8 mph - N/A   Clear
6:10 AM 23.0 °F 10.1 °F 14.0 °F 68% 29.97 in 10.0 mi South 15.0 mph 18.4 mph N/A   Clear
6:30 AM 23.0 °F 10.6 °F 14.0 °F 68% 29.97 in 10.0 mi South 13.8 mph - N/A   Clear
6:50 AM 23.0 °F 11.7 °F 14.0 °F 68% 29.97 in 10.0 mi South 11.5 mph - N/A   Clear
7:10 AM 23.0 °F 11.1 °F 14.0 °F 68% 29.97 in 10.0 mi South 12.7 mph - N/A   Clear
7:50 AM 23.0 °F 11.7 °F 14.0 °F 68% 29.97 in 10.0 mi South 11.5 mph - N/A   Clear
8:10 AM 23.0 °F 11.7 °F 15.8 °F 74% 29.97 in 10.0 mi South 11.5 mph - N/A   Clear
8:30 AM 24.8 °F 14.6 °F 15.8 °F 69% 29.97 in 10.0 mi South 10.4 mph - N/A   Clear
8:50 AM 26.6 °F 18.2 °F 15.8 °F 64% 29.98 in 10.0 mi SSW 8.1 mph - N/A   Clear
9:10 AM 28.4 °F 19.7 °F 15.8 °F 59% 29.99 in 10.0 mi South 9.2 mph - N/A   Clear
9:30 AM 32.0 °F 24.2 °F 15.8 °F 51% 29.99 in 10.0 mi South 9.2 mph - N/A   Clear
9:50 AM 32.0 °F 24.2 °F 15.8 °F 51% 29.99 in 10.0 mi South 9.2 mph - N/A   Clear
10:10 AM 35.6 °F 29.2 °F 15.8 °F 44% 30.00 in 10.0 mi SSW 8.1 mph - N/A   Clear
10:30 AM 37.4 °F 30.3 °F 14.0 °F 38% 30.00 in 10.0 mi WSW 10.4 mph - N/A   Clear
10:50 AM 37.4 °F 31.4 °F 15.8 °F 41% 30.01 in 10.0 mi WSW 8.1 mph - N/A   Clear
11:10 AM 37.4 °F 31.4 °F 15.8 °F 41% 30.02 in 10.0 mi WSW 8.1 mph - N/A   Clear
11:30 AM 39.2 °F 35.0 °F 15.8 °F 39% 30.01 in 10.0 mi WSW 5.8 mph - N/A   Clear
11:50 AM 39.2 °F 35.0 °F 15.8 °F 39% 30.02 in 10.0 mi West 5.8 mph - N/A   Clear
12:10 PM 39.2 °F 35.9 °F 15.8 °F 39% 30.02 in 10.0 mi West 4.6 mph - N/A   Clear
12:50 PM 44.6 °F 39.7 °F 17.6 °F 34% 30.02 in 10.0 mi WNW 9.2 mph - N/A   Clear
1:10 PM 46.4 °F 41.1 °F 19.4 °F 34% 30.03 in 10.0 mi WNW 11.5 mph - N/A   Clear
1:30 PM 48.2 °F - 19.4 °F 32% 30.03 in 10.0 mi NW 9.2 mph - N/A   Clear
1:50 PM 48.2 °F - 21.2 °F 34% 30.03 in 10.0 mi NNW 10.4 mph - N/A   Clear
2:10 PM 48.2 °F - 23.0 °F 37% 30.05 in 10.0 mi NNW 11.5 mph - N/A   Clear
2:50 PM 48.2 °F - 23.0 °F 37% 30.07 in 10.0 mi NNW 11.5 mph - N/A   Clear
3:10 PM 48.2 °F - 23.0 °F 37% 30.07 in 10.0 mi NW 10.4 mph - N/A   Clear
3:30 PM 48.2 °F - 24.8 °F 40% 30.08 in 10.0 mi NNW 10.4 mph - N/A   Clear
3:50 PM 50.0 °F - 28.4 °F 43% 30.10 in 10.0 mi North 16.1 mph 24.2 mph N/A   Clear
4:10 PM 48.2 °F - 28.4 °F 46% 30.11 in 10.0 mi North 23.0 mph 28.8 mph N/A   Clear
4:30 PM 48.2 °F - 28.4 °F 46% 30.13 in 10.0 mi North 21.9 mph 27.6 mph N/A   Clear
4:50 PM 46.4 °F 39.2 °F 30.2 °F 53% 30.13 in 10.0 mi North 18.4 mph 31.1 mph N/A   Scattered Clouds
5:30 PM 44.6 °F 38.1 °F 30.2 °F 57% 30.15 in 10.0 mi North 13.8 mph - N/A   Clear
5:50 PM 42.8 °F 35.4 °F 32.0 °F 66% 30.16 in 10.0 mi North 15.0 mph - N/A   Clear
6:10 PM 41.0 °F 33.1 °F 32.0 °F 70% 30.18 in 10.0 mi North 15.0 mph - N/A   Clear
6:30 PM 41.0 °F 33.9 °F 32.0 °F 70% 30.19 in 10.0 mi North 12.7 mph - N/A   Clear
6:50 PM 39.2 °F 30.8 °F 32.0 °F 75% 30.19 in 10.0 mi North 15.0 mph 21.9 mph N/A   Clear
7:10 PM 39.2 °F 31.2 °F 32.0 °F 75% 30.20 in 10.0 mi North 13.8 mph - N/A   Clear
7:30 PM 37.4 °F 28.9 °F 32.0 °F 81% 30.21 in 10.0 mi North 13.8 mph - N/A   Clear
8:10 PM 35.6 °F 26.2 °F 33.8 °F 93% 30.23 in 10.0 mi North 15.0 mph - N/A   Clear
8:30 PM 35.6 °F 26.2 °F 33.8 °F 93% 30.23 in 10.0 mi North 15.0 mph 21.9 mph N/A   Clear
8:50 PM 35.6 °F 25.2 °F 33.8 °F 93% 30.24 in 10.0 mi North 18.4 mph 24.2 mph N/A   Clear
9:10 PM 35.6 °F 25.2 °F 32.0 °F 87% 30.24 in 10.0 mi North 18.4 mph 25.3 mph N/A   Clear
9:30 PM 33.8 °F 23.5 °F 32.0 °F 93% 30.25 in 10.0 mi North 16.1 mph - N/A   Clear
9:50 PM 33.8 °F 23.2 °F 32.0 °F 93% 30.25 in 10.0 mi North 17.3 mph 21.9 mph N/A   Clear
10:30 PM 32.0 °F 21.2 °F 32.0 °F 100% 30.26 in 10.0 mi North 16.1 mph - N/A   Clear
11:10 PM 32.0 °F 21.6 °F 32.0 °F 100% 30.27 in 10.0 mi North 15.0 mph - N/A   Clear
11:30 PM 32.0 °F 22.1 °F 32.0 °F 100% 30.28 in 10.0 mi North 13.8 mph - N/A   Clear
11:50 PM 32.0 °F 22.1 °F 32.0 °F 100% 30.29 in 10.0 mi North 13.8 mph - N/A   Clear